Location: Hackberry
(29.5783°N, 96.8797°W)
Time: 23:11:05
(UTC+00:00)

Transit 2A - All Passes

Search period start: 04 November 2024 00:00
Search period end: 14 November 2024 00:00
Orbit: 591 x 959 km, 66.7° (Epoch: 04 November)

Date Brightness Start Highest point End Pass type
(mag) Time Alt. Az. Time Alt. Az. Time Alt. Az.
04 Nov - 12:09:30 10° SSW 12:15:38 79° ESE 12:22:00 10° NNE visible
04 Nov - 13:55:51 10° W 13:59:26 16° NW 14:03:04 10° NNW daylight
04 Nov - 21:04:37 10° N 21:08:18 18° NE 21:11:45 10° E daylight
04 Nov - 22:46:33 10° NW 22:51:43 46° WSW 22:56:21 10° S daylight
05 Nov - 11:34:14 10° S 11:40:09 52° ESE 11:46:17 10° NE visible
05 Nov - 13:18:46 10° WSW 13:23:35 23° NW 13:28:28 10° N daylight
05 Nov - 20:30:34 10° NNE 20:32:23 12° NE 20:34:09 10° ENE daylight
05 Nov - 22:10:49 10° NNW 22:16:16 78° WSW 22:21:08 10° SSE daylight
06 Nov - 10:59:19 10° S 11:04:44 34° ESE 11:10:20 10° NE visible
06 Nov - 12:42:16 10° WSW 12:47:48 33° WNW 12:53:28 10° N daylight
06 Nov - 21:35:17 10° NNW 21:40:43 64° ENE 21:45:34 10° SE daylight
07 Nov - 10:24:51 10° SSE 10:29:22 22° ESE 10:34:01 10° ENE visible
07 Nov - 12:06:08 10° SW 12:12:06 49° WNW 12:18:14 10° NNE visible
07 Nov - 20:59:57 10° N 21:05:04 39° ENE 21:09:40 10° SE daylight
07 Nov - 22:44:13 10° WNW 22:47:39 18° WSW 22:50:53 10° SW daylight
08 Nov - 09:51:14 10° SE 09:54:04 13° ESE 09:56:56 10° ENE visible
08 Nov - 11:30:18 10° SSW 11:36:28 74° WNW 11:42:50 10° NNE visible
08 Nov - 13:19:07 10° WNW 13:20:36 11° NW 13:22:05 10° NW daylight
08 Nov - 20:24:50 10° N 20:29:19 25° NE 20:33:26 10° ESE daylight
08 Nov - 22:07:46 10° NW 22:12:20 30° WSW 22:16:30 10° SSW daylight
09 Nov - 10:54:46 10° SSW 11:00:55 75° ESE 11:07:15 10° NNE visible
09 Nov - 12:40:50 10° W 12:44:39 16° NW 12:48:29 10° NNW daylight
09 Nov - 19:50:03 10° NNE 19:53:27 17° NE 19:56:40 10° E daylight
09 Nov - 21:31:47 10° NW 21:36:56 50° WSW 21:41:34 10° S daylight
10 Nov - 10:19:31 10° S 10:25:25 49° ESE 10:31:29 10° NE visible
10 Nov - 12:03:50 10° WSW 12:08:47 24° NW 12:13:47 10° N visible
10 Nov - 19:16:27 10° NE 19:17:31 11° NE 19:18:34 10° ENE daylight
10 Nov - 20:56:03 10° NNW 21:01:27 84° WSW 21:06:15 10° SSE daylight
11 Nov - 09:44:37 10° SSE 09:49:58 32° ESE 09:55:28 10° NE visible
11 Nov - 11:27:21 10° WSW 11:32:59 35° WNW 11:38:44 10° N visible
11 Nov - 20:20:31 10° NNW 20:25:52 59° ENE 20:30:38 10° SE daylight
11 Nov - 22:06:57 10° W 22:08:06 11° W 22:09:14 10° WSW daylight
12 Nov - 09:10:12 10° SSE 09:14:35 20° ESE 09:19:04 10° ENE visible
12 Nov - 10:51:15 10° SW 10:57:17 52° WNW 11:03:27 10° NNE visible
12 Nov - 19:45:11 10° N 19:50:10 36° ENE 19:54:40 10° SE daylight
12 Nov - 21:29:15 10° WNW 21:32:49 19° WSW 21:36:09 10° SSW daylight
13 Nov - 08:36:47 10° SE 08:39:15 12° ESE 08:41:45 10° ENE visible
13 Nov - 10:15:26 10° SSW 10:21:38 78° WNW 10:28:00 10° NNE visible
13 Nov - 12:03:40 10° WNW 12:05:41 11° NW 12:07:43 10° NNW visible
13 Nov - 19:10:06 10° N 19:14:23 23° NE 19:18:19 10° ESE daylight
13 Nov - 20:52:51 10° NW 20:57:27 31° WSW 21:01:39 10° S daylight
